Location: Newark
(49.1000°N, 0.4667°W)
Time: 10:50:06
(UTC+00:00)

BEESAT 3 - Pass Details

Date: 12 July 2020
Orbit: 482 x 522 km, 64.9° (Epoch: 10 August)

Event Time Altitude Azimuth Distance (km) Brightness Sun altitude
Rises 01:07:44 0° 324° (NW) 2,659 ? -17.7°
Reaches altitude 10° 01:11:25 10° 360° (N) 1,763 ? -17.6°
Maximum altitude 01:12:43 11° 19° (NNE) 1,675 ? -17.5°
Drops below altitude 10° 01:14:02 10° 39° (NE) 1,756 ? -17.4°
Sets 01:17:41 0° 74° (ENE) 2,631 ? -17.3°
